TimeCDT,TemperatureF,Dew PointF,Humidity,Sea Level PressureIn,VisibilityMPH,Wind Direction,Wind SpeedMPH,Gust SpeedMPH,PrecipitationIn,Events,Conditions,WindDirDegrees,DateUTC
12:15 AM,52.5,43.7,72,30.20,10.0,NNE,3.5,-,N/A,,Clear,30,2013-07-02 05:15:00
12:35 AM,51.6,43.9,75,30.20,10.0,Calm,Calm,-,N/A,,Clear,0,2013-07-02 05:35:00
12:55 AM,49.8,44.2,81,30.20,10.0,NE,3.5,-,N/A,,Clear,40,2013-07-02 05:55:00
1:15 AM,49.8,44.4,82,30.20,10.0,Calm,Calm,-,N/A,,Clear,0,2013-07-02 06:15:00
1:35 AM,48.4,43.3,83,30.20,10.0,Calm,Calm,-,N/A,,Clear,0,2013-07-02 06:35:00
1:55 AM,48.7,46.2,91,30.20,10.0,Calm,Calm,-,N/A,,Scattered Clouds,0,2013-07-02 06:55:00
2:15 AM,47.5,47.1,99,30.20,10.0,Calm,Calm,-,N/A,,Scattered Clouds,0,2013-07-02 07:15:00
2:35 AM,46.9,46.4,98,30.20,10.0,Calm,Calm,-,N/A,,Scattered Clouds,0,2013-07-02 07:35:00
2:55 AM,46.6,45.9,97,30.18,10.0,Calm,Calm,-,N/A,,Scattered Clouds,0,2013-07-02 07:55:00
3:15 AM,46.8,45.5,95,30.18,10.0,NNE,3.5,-,N/A,,Clear,20,2013-07-02 08:15:00
3:35 AM,46.4,44.6,93,30.20,10.0,Calm,Calm,-,N/A,,Scattered Clouds,0,2013-07-02 08:35:00
3:55 AM,45.7,44.6,96,30.20,10.0,Calm,Calm,-,N/A,,Scattered Clouds,0,2013-07-02 08:55:00
4:15 AM,45.5,45.1,99,30.20,10.0,Calm,Calm,-,N/A,,Clear,0,2013-07-02 09:15:00
4:35 AM,44.8,44.6,99,30.20,10.0,Calm,Calm,-,N/A,,Clear,0,2013-07-02 09:35:00
4:55 AM,44.4,43.9,98,30.20,10.0,Calm,Calm,-,N/A,,Clear,0,2013-07-02 09:55:00
5:15 AM,44.6,43.7,97,30.20,10.0,Calm,Calm,-,N/A,,Scattered Clouds,0,2013-07-02 10:15:00
5:35 AM,45.0,43.7,95,30.20,10.0,Calm,Calm,-,N/A,,Scattered Clouds,0,2013-07-02 10:35:00
5:55 AM,45.3,43.3,93,30.20,10.0,Calm,Calm,-,N/A,,Scattered Clouds,0,2013-07-02 10:55:00
6:15 AM,46.6,45.3,95,30.20,10.0,Calm,Calm,-,N/A,,Scattered Clouds,0,2013-07-02 11:15:00
6:35 AM,49.3,42.8,78,30.20,10.0,Calm,Calm,-,N/A,,Clear,0,2013-07-02 11:35:00
6:55 AM,50.2,42.1,74,30.21,10.0,Calm,Calm,-,N/A,,Mostly Cloudy,0,2013-07-02 11:55:00
7:15 AM,52.0,43.7,73,30.21,10.0,Calm,Calm,-,N/A,,Mostly Cloudy,0,2013-07-02 12:15:00
7:35 AM,56.5,42.6,60,30.21,10.0,East,3.5,-,N/A,,Scattered Clouds,100,2013-07-02 12:35:00
7:55 AM,58.6,43.0,56,30.20,10.0,ENE,3.5,-,N/A,,Scattered Clouds,70,2013-07-02 12:55:00
8:15 AM,60.1,43.7,55,30.20,10.0,ESE,3.5,-,N/A,,Scattered Clouds,110,2013-07-02 13:15:00
8:55 AM,63.9,43.0,47,30.20,10.0,SSE,3.5,-,N/A,,Scattered Clouds,150,2013-07-02 13:55:00
9:15 AM,64.9,36.5,35,30.20,10.0,SSE,4.6,-,N/A,,Scattered Clouds,160,2013-07-02 14:15:00
9:35 AM,66.2,35.6,32,30.20,10.0,SE,4.6,-,N/A,,Scattered Clouds,130,2013-07-02 14:35:00
10:35 AM,68.7,39.4,34,30.18,10.0,East,4.6,-,N/A,,Clear,80,2013-07-02 15:35:00
10:55 AM,69.1,40.8,36,30.18,10.0,East,3.5,-,N/A,,Clear,90,2013-07-02 15:55:00
1:35 PM,72.3,38.8,30,30.15,10.0,NE,3.5,-,N/A,,Clear,50,2013-07-02 18:35:00
1:55 PM,74.3,41.9,31,30.15,10.0,South,5.8,-,N/A,,Clear,170,2013-07-02 18:55:00
2:55 PM,74.8,39.6,28,30.14,10.0,NW,3.5,-,N/A,,Clear,310,2013-07-02 19:55:00
6:35 PM,75.2,41.0,29,30.10,10.0,East,6.9,-,N/A,,Clear,100,2013-07-02 23:35:00
7:35 PM,72.3,40.8,32,30.10,10.0,ESE,3.5,-,N/A,,Clear,120,2013-07-03 00:35:00
10:35 PM,60.4,44.8,56,30.13,10.0,South,4.6,-,N/A,,Clear,180,2013-07-03 03:35:00
11:55 PM,52.9,44.1,72,30.13,10.0,Calm,Calm,-,N/A,,Clear,0,2013-07-03 04:55:00